Latest Weather Observations for Ballina

IDN60801

Issued at 11:03 pm EST Saturday 23 May 2015 (issued every 30 minutes, with the page automatically refreshed every 10 minutes)

About weather observations | Map of weather stations | Latest weather observations for NSW | Other Formats
Station Details ID: 058198 Name: BALLINA AIRPORT AWS Lat: -28.84 Lon: 153.56 Height: 1.3 m
Data from the previous 72 hours. | See also: Recent months at Ballina
Date/Time
EST
Temp
°C
App
Temp
°C
Dew
Point
Rel
Hum
%
Delta-T
°C
Wind Press
QNH
hPa
Press
MSL
hPa
Rain
since 9 am
mm
Dir
 
Spd
km/h
Gust
km/h
Spd
kts
Gust
kts
23/11:00pm 14.6 12.1 14.0 96 0.3 WSW 20 30 11 16 1026.5 1026.5 15.6
23/10:33pm 14.7 14.0 14.4 98 0.2 SW 11 17 6 9 1026.6 1026.6 15.4
23/10:30pm 14.7 14.0 14.4 98 0.2 SW 11 17 6 9 1026.6 1026.6 15.4
23/10:05pm 14.7 14.8 14.4 98 0.2 S 7 22 4 12 1026.8 1026.8 14.0
23/10:00pm 14.7 13.6 14.4 98 0.2 SW 13 22 7 12 1026.9 1026.9 12.2
23/09:57pm 14.7 13.3 14.4 98 0.2 SW 15 22 8 12 1026.8 1026.8 10.8
23/09:40pm 14.8 13.0 14.5 98 0.2 SW 17 24 9 13 1026.5 1026.5 9.2
23/09:30pm 14.7 13.2 14.2 97 0.3 SW 15 20 8 11 1026.7 1026.7 9.2
23/09:26pm 14.7 13.6 14.2 97 0.3 SW 13 20 7 11 1026.7 1026.7 9.0
23/09:23pm 14.7 13.6 14.2 97 0.3 SW 13 20 7 11 1026.8 1026.8 9.0
23/09:07pm 14.8 12.5 14.0 95 0.4 SW 19 24 10 13 1026.7 1026.7 4.8
23/09:00pm 14.7 12.6 13.7 94 0.6 SW 17 24 9 13 1026.5 1026.5 4.2
23/08:30pm 15.0 12.6 14.4 96 0.3 SW 20 32 11 17 1026.3 1026.3 4.0
23/08:26pm 15.1 12.9 14.5 96 0.3 WSW 19 28 10 15 1026.3 1026.3 4.0
23/08:09pm 15.2 13.1 14.6 96 0.3 WSW 19 28 10 15 1026.3 1026.3 3.8
23/08:07pm 15.1 12.9 14.5 96 0.3 WSW 19 28 10 15 1026.3 1026.3 3.6
23/08:00pm 15.1 12.9 14.5 96 0.3 SW 19 26 10 14 1026.3 1026.3 3.2
23/07:45pm 15.1 12.8 14.1 94 0.6 WSW 19 22 10 12 1026.3 1026.3 2.0
23/07:30pm 15.2 13.7 14.1 93 0.6 WSW 15 19 8 10 1026.0 1026.0 1.2
23/07:21pm 15.5 13.0 14.2 92 0.7 SW 20 28 11 15 1026.0 1026.0 1.0
23/07:02pm 16.5 14.5 14.0 85 1.4 SW 17 28 9 15 1026.0 1026.0 0.8
23/07:00pm 16.8 14.7 13.7 82 1.7 SW 17 24 9 13 1025.9 1025.9 0.2
23/06:30pm 16.7 14.5 13.4 81 1.9 SW 17 24 9 13 1025.3 1025.3 0.0
23/06:00pm 17.9 15.3 13.2 74 2.6 SSW 19 32 10 17 1025.1 1025.1 0.0
23/05:30pm 18.6 15.4 13.0 70 3.2 S 22 41 12 22 1024.8 1024.8 0.0
23/05:00pm 18.5 14.6 10.8 61 4.1 S 22 35 12 19 1024.6 1024.6 0.0
23/04:30pm 18.8 14.3 10.1 57 4.6 S 24 35 13 19 1024.5 1024.5 0.0
23/04:00pm 19.3 14.2 9.2 52 5.3 S 26 39 14 21 1024.4 1024.4 0.0
23/03:30pm 19.7 14.8 10.1 54 5.1 S 26 37 14 20 1024.3 1024.3 0.0
23/03:00pm 20.0 14.4 10.1 53 5.3 S 30 43 16 23 1024.1 1024.1 0.0
23/02:30pm 20.5 14.2 9.1 48 6.0 S 32 43 17 23 1023.9 1023.9 0.0
23/02:00pm 20.6 14.5 8.3 45 6.4 S 30 41 16 22 1023.8 1023.8 0.0
23/01:47pm 20.8 14.6 9.4 48 6.1 S 32 50 17 27 1023.7 1023.7 0.0
23/01:30pm 20.5 14.3 9.4 49 5.9 SSE 32 44 17 24 1023.7 1023.7 0.0
23/01:00pm 20.2 14.0 9.5 50 5.7 S 32 44 17 24 1023.8 1023.8 0.0
23/12:30pm 19.9 14.8 9.2 50 5.7 S 26 37 14 20 1023.9 1023.9 0.0
23/12:04pm 19.4 13.3 9.9 54 5.0 S 32 50 17 27 1024.2 1024.2 0.0
23/12:00pm 19.6 13.7 10.6 56 4.8 S 32 44 17 24 1024.2 1024.2 0.0
23/11:58am 19.6 13.7 10.6 56 4.9 S 32 44 17 24 1024.2 1024.2 0.0
23/11:30am 17.9 16.3 13.8 77 2.3 SW 15 24 8 13 1024.5 1024.5 0.0
23/11:11am 17.2 12.9 13.3 78 2.2 SW 28 46 15 25 1024.7 1024.7 0.0
23/11:00am 18.5 16.3 13.4 72 2.9 SSW 17 30 9 16 1024.7 1024.7 0.0
23/10:34am 18.4 13.8 12.4 68 3.3 SSW 28 46 15 25 1024.8 1024.8 0.0
23/10:30am 19.0 15.0 13.0 68 3.4 SSW 26 41 14 22 1024.6 1024.6 0.0
23/10:00am 17.6 14.2 12.5 72 2.8 SW 22 37 12 20 1024.6 1024.6 0.0
23/09:30am 17.1 13.6 12.2 73 2.7 SW 22 33 12 18 1024.5 1024.5 0.0
23/09:00am 17.0 13.5 12.3 74 2.6 SW 22 39 12 21 1024.0 1024.0 0.2
23/08:30am 15.4 11.9 12.2 81 1.7 SW 22 32 12 17 1023.7 1023.7 0.2
23/08:00am 15.5 11.5 11.9 79 1.9 SW 24 35 13 19 1023.6 1023.6 0.2
23/07:30am 15.0 11.6 11.4 79 1.9 WSW 20 28 11 15 1022.9 1022.9 0.2
23/07:00am 15.1 11.3 11.3 78 2.0 SW 22 35 12 19 1022.5 1022.5 0.2
23/06:30am 15.0 11.5 11.0 77 2.1 SW 20 28 11 15 1022.1 1022.1 0.2
23/06:00am 14.9 10.6 10.9 77 2.1 SW 24 37 13 20 1021.5 1021.5 0.2
23/05:30am 15.1 10.4 10.5 74 2.4 SW 26 35 14 19 1021.0 1021.0 0.2
23/05:00am 14.8 10.6 11.2 79 1.9 SW 24 39 13 21 1020.5 1020.5 0.2
23/04:30am 15.0 11.6 11.4 79 1.9 SW 20 30 11 16 1020.5 1020.5 0.0
23/04:00am 15.6 11.3 10.6 72 2.6 SW 24 33 13 18 1020.0 1020.0 0.0
23/03:30am 15.7 11.1 10.9 73 2.6 SW 26 33 14 18 1019.8 1019.8 0.0
23/03:00am 16.0 11.8 11.0 72 2.7 SW 24 37 13 20 1019.7 1019.7 0.0
23/02:30am 16.1 12.2 10.8 71 2.8 SW 22 35 12 19 1019.7 1019.7 0.0
23/02:00am 16.5 12.3 11.2 71 2.8 SW 24 39 13 21 1019.8 1019.8 0.0
23/01:30am 16.6 12.1 11.5 72 2.8 SW 26 37 14 20 1019.6 1019.6 0.0
23/01:04am 17.3 12.5 11.6 69 3.1 SW 28 46 15 25 1019.8 1019.8 0.0
23/01:00am 16.8 12.5 10.9 68 3.2 SW 24 35 13 19 1019.9 1019.9 0.0
23/12:30am 17.3 12.7 10.9 66 3.4 SW 26 43 14 23 1019.5 1019.5 0.0
23/12:00am 17.0 12.8 11.1 68 3.2 SW 24 37 13 20 1019.2 1019.2 0.0
 
Date/Time
EST
Temp
°C
App
Temp
°C
Dew
Point
Rel
Hum
%
Delta-T
°C
Wind Press
QNH
hPa
Press
MSL
hPa
Rain
since 9 am
mm
Dir
 
Spd
km/h
Gust
km/h
Spd
kts
Gust
kts
22/11:30pm 17.1 12.6 11.4 69 3.1 SW 26 39 14 21 1019.0 1019.0 0.0
22/11:00pm 16.7 12.1 11.0 69 3.0 SW 26 37 14 20 1018.9 1018.9 0.0
22/10:30pm 16.5 12.0 9.9 65 3.5 SW 24 30 13 16 1018.6 1018.6 0.0
22/10:00pm 16.8 12.6 9.7 63 3.7 SW 22 35 12 19 1018.5 1018.5 0.0
22/09:30pm 16.9 12.8 8.8 59 4.2 SW 20 30 11 16 1018.0 1018.0 0.0
22/09:00pm 17.1 12.9 8.3 56 4.5 WSW 20 30 11 16 1017.9 1017.9 0.0
22/08:30pm 17.2 12.7 8.4 56 4.5 WSW 22 32 12 17 1017.4 1017.4 0.0
22/08:00pm 16.9 12.7 8.1 56 4.5 WSW 20 26 11 14 1016.9 1016.9 0.0
22/07:30pm 16.7 11.7 8.1 57 4.4 W 24 32 13 17 1016.4 1016.4 0.0
22/07:00pm 16.2 12.9 8.2 59 4.0 W 15 20 8 11 1016.0 1016.0 0.0
22/06:30pm 15.2 11.9 8.2 63 3.5 W 15 20 8 11 1015.7 1015.7 0.0
22/06:00pm 15.1 11.8 8.1 63 3.5 W 15 19 8 10 1015.1 1015.1 0.0
22/05:30pm 16.2 12.8 7.7 57 4.3 WSW 15 20 8 11 1014.7 1014.7 0.0
22/05:00pm 16.5 13.0 7.4 55 4.5 W 15 20 8 11 1014.6 1014.6 0.0
22/04:30pm 18.4 14.2 7.5 49 5.5 WSW 19 28 10 15 1014.4 1014.4 0.0
22/04:00pm 19.2 14.4 7.3 46 6.0 WSW 22 32 12 17 1014.0 1014.0 0.0
22/03:30pm 19.6 14.1 7.4 45 6.2 W 26 35 14 19 1013.6 1013.6 0.0
22/03:00pm 19.7 13.3 7.1 44 6.4 W 30 39 16 21 1013.5 1013.5 0.0
22/02:30pm 19.9 13.6 7.3 44 6.4 W 30 43 16 23 1013.3 1013.3 0.0
22/02:00pm 20.1 13.8 8.8 48 5.9 W 32 43 17 23 1013.6 1013.6 0.0
22/01:30pm 19.7 13.0 8.1 47 6.0 W 33 46 18 25 1013.5 1013.5 0.0
22/01:00pm 19.5 13.4 8.2 48 5.8 W 30 39 16 21 1013.9 1013.9 0.0
22/12:30pm 19.5 12.5 8.5 49 5.7 W 35 44 19 24 1014.1 1014.1 0.0
22/12:00pm 19.2 12.4 7.9 48 5.8 W 33 48 18 26 1014.2 1014.2 0.0
22/11:30am 18.9 12.4 8.3 50 5.5 W 32 48 17 26 1014.7 1014.7 0.0
22/11:15am 18.8 12.3 8.2 50 5.5 W 32 50 17 27 1015.0 1015.0 0.0
22/11:00am 18.3 10.5 8.3 52 5.1 W 39 52 21 28 1015.1 1015.1 0.0
22/10:30am 17.9 10.4 7.9 52 5.1 W 37 48 20 26 1015.3 1015.3 0.0
22/10:00am 17.9 11.5 8.7 55 4.7 W 32 44 17 24 1015.5 1015.5 0.0
22/09:42am 17.4 9.6 8.3 55 4.7 W 39 57 21 31 1015.4 1015.4 0.0
22/09:30am 17.5 10.7 9.4 59 4.2 W 35 46 19 25 1015.3 1015.3 0.0
22/09:03am 17.4 10.9 10.5 64 3.7 W 35 54 19 29 1015.3 1015.3 0.0
22/09:00am 17.0 9.9 9.4 61 4.0 W 37 54 20 29 1015.3 1015.3 3.8
22/08:57am 17.1 10.7 9.3 60 4.1 WNW 33 54 18 29 1015.3 1015.3 3.8
22/08:30am 17.2 13.4 11.2 68 3.2 WNW 22 37 12 20 1015.2 1015.2 3.8
22/08:00am 16.6 14.5 12.4 76 2.3 WNW 15 20 8 11 1015.2 1015.2 3.8
22/07:30am 16.0 14.5 12.0 77 2.2 WNW 11 15 6 8 1015.0 1015.0 3.8
22/07:00am 15.1 13.7 12.1 82 1.6 WNW 11 17 6 9 1014.9 1014.9 3.8
22/06:30am 14.5 12.2 11.8 84 1.5 W 15 17 8 9 1014.9 1014.9 3.8
22/06:00am 14.9 12.4 12.4 85 1.4 W 17 19 9 10 1014.7 1014.7 3.8
22/05:30am 15.3 12.3 12.4 83 1.6 W 20 26 11 14 1014.7 1014.7 3.8
22/05:00am 15.6 14.0 12.7 83 1.6 WNW 13 20 7 11 1014.4 1014.4 3.8
22/04:30am 15.2 15.0 13.1 87 1.2 NNW 6 7 3 4 1014.2 1014.2 3.8
22/04:00am 15.8 14.4 13.3 85 1.4 WNW 13 17 7 9 1014.3 1014.3 3.8
22/03:30am 16.1 14.3 13.4 84 1.5 WNW 15 19 8 10 1014.2 1014.2 3.8
22/03:00am 15.9 14.6 13.7 87 1.2 WNW 13 17 7 9 1014.2 1014.2 3.8
22/02:30am 15.8 14.9 13.8 88 1.1 W 11 15 6 8 1014.6 1014.6 3.8
22/02:00am 16.4 14.4 13.9 85 1.4 WNW 17 22 9 12 1014.7 1014.7 3.8
22/01:30am 15.9 16.0 14.4 91 0.9 WNW 7 11 4 6 1014.8 1014.8 3.8
22/01:00am 15.8 16.7 15.0 95 0.5 NW 4 9 2 5 1015.4 1015.4 3.8
22/12:30am 15.9 15.9 15.3 96 0.3 NW 9 13 5 7 1015.6 1015.6 3.8
22/12:00am 15.9 16.3 15.4 97 0.3 NNW 7 9 4 5 1015.9 1015.9 3.8
 
Date/Time
EST
Temp
°C
App
Temp
°C
Dew
Point
Rel
Hum
%
Delta-T
°C
Wind Press
QNH
hPa
Press
MSL
hPa
Rain
since 9 am
mm
Dir
 
Spd
km/h
Gust
km/h
Spd
kts
Gust
kts
21/11:30pm 15.6 16.1 15.1 97 0.3 NNW 6 7 3 4 1016.3 1016.3 3.8
21/11:00pm 15.8 16.4 15.2 96 0.3 NNW 6 7 3 4 1016.6 1016.6 3.8
21/10:30pm 16.0 16.7 15.5 97 0.3 NNW 6 7 3 4 1016.8 1016.8 3.8
21/10:00pm 16.1 16.8 15.6 97 0.3 NNW 6 7 3 4 1017.1 1017.1 3.8
21/09:30pm 16.0 16.5 15.5 97 0.3 NW 7 9 4 5 1017.3 1017.3 3.6
21/09:00pm 16.1 16.6 15.6 97 0.3 N 7 9 4 5 1017.0 1017.0 3.6
21/08:30pm 16.2 16.9 15.7 97 0.3 NNW 6 9 3 5 1016.9 1016.9 3.6
21/08:00pm 16.1 17.9 15.5 96 0.3 CALM 0 0 0 0 1017.1 1017.1 3.2
21/07:30pm 16.3 17.4 15.7 96 0.4 N 4 9 2 5 1017.7 1017.7 3.0
21/07:00pm 16.4 17.2 15.8 96 0.4 N 6 7 3 4 1017.4 1017.4 2.2
21/06:30pm 16.6 18.5 15.8 95 0.5 CALM 0 0 0 0 1017.2 1017.2 1.2
21/06:00pm 16.4 16.1 15.4 94 0.6 E 11 15 6 8 1016.5 1016.5 1.0
21/05:30pm 16.5 16.9 15.4 93 0.6 SW 7 9 4 5 1017.2 1017.2 1.0
21/05:00pm 16.6 17.0 15.3 92 0.8 SW 7 11 4 6 1017.5 1017.5 1.0
21/04:30pm 16.6 15.8 15.0 90 0.9 WSW 13 17 7 9 1017.5 1017.5 0.6
21/04:00pm 17.1 15.6 15.4 90 1.0 WSW 17 20 9 11 1017.5 1017.5 0.6
21/03:30pm 17.4 15.9 15.2 87 1.3 WSW 17 24 9 13 1017.5 1017.5 0.2
21/03:00pm 17.9 16.2 14.8 82 1.8 WSW 17 22 9 12 1016.9 1016.9 0.2
21/02:30pm 17.9 16.6 14.8 82 1.8 SW 15 20 8 11 1016.8 1016.8 0.2
21/02:00pm 18.6 17.3 14.9 79 2.2 SSW 15 22 8 12 1016.3 1016.3 0.2
21/01:30pm 18.6 16.9 15.7 83 1.7 SW 19 28 10 15 1016.9 1016.9 0.2
21/01:00pm 17.9 15.7 15.9 88 1.2 SW 22 32 12 17 1017.1 1017.1 0.2
21/12:30pm 17.7 15.1 16.0 90 1.0 SW 24 33 13 18 1017.6 1017.6 0.2
21/12:00pm 20.0 18.1 16.6 81 2.0 SSW 22 32 12 17 1018.0 1018.0 0.0
21/11:30am 21.4 19.8 16.6 74 2.9 SSW 20 26 11 14 1018.0 1018.0 0.0
21/11:00am 22.2 22.0 17.6 75 2.8 S 15 22 8 12 1018.1 1018.1 0.0
21/10:40am 22.0 21.8 17.6 76 2.7 S 15 20 8 11 1018.2 1018.2 0.0
21/10:30am 21.9 22.1 17.7 77 2.6 SSW 13 19 7 10 1018.4 1018.4 0.0
21/10:25am 21.9 22.2 17.9 78 2.5 SSW 13 19 7 10 1018.4 1018.4 0.0
21/10:00am 22.3 23.4 17.9 76 2.7 SSW 9 15 5 8 1018.1 1018.1 0.0
21/09:30am 22.2 23.3 18.0 77 2.6 WSW 9 13 5 7 1018.3 1018.3 0.0
21/09:00am 21.3 21.9 17.7 80 2.2 SW 11 15 6 8 1018.4 1018.4 0.0
21/08:30am 20.2 21.4 17.4 84 1.7 WNW 7 11 4 6 1018.4 1018.4 0.0
21/08:00am 18.7 21.1 17.9 95 0.5 WNW 2 7 1 4 1018.1 1018.1 0.0
21/07:30am 18.1 19.7 17.9 99 0.1 WNW 6 9 3 5 1018.4 1018.4 0.0
21/07:00am 16.7 17.8 16.5 99 0.1 WNW 6 11 3 6 1018.2 1018.2 0.0
21/06:30am 16.2 16.5 15.9 98 0.2 SE 9 11 5 6 1017.5 1017.5 0.0
21/06:00am 16.1 18.0 15.8 98 0.2 CALM 0 0 0 0 1017.2 1017.2 0.0
21/05:58am 16.1 18.0 15.8 98 0.2 CALM 0 0 0 0 1017.1 1017.1 0.0
21/05:30am 16.2 18.1 15.7 97 0.3 CALM 0 0 0 0 1016.9 1016.9 0.0
21/05:00am 16.9 19.1 16.4 97 0.3 CALM 0 0 0 0 1016.7 1016.7 0.0
21/04:54am 16.7 18.8 16.2 97 0.3 CALM 0 0 0 0 1016.7 1016.7 0.0
21/04:30am 17.0 19.2 16.5 97 0.3 CALM 0 0 0 0 1016.7 1016.7 0.0
21/04:00am 17.5 19.9 17.0 97 0.3 CALM 0 0 0 0 1016.8 1016.8 0.0
21/03:30am 17.6 19.2 17.0 96 0.4 NNW 4 7 2 4 1016.7 1016.7 0.0
21/03:00am 17.6 20.0 17.0 96 0.4 CALM 0 0 0 0 1016.6 1016.6 0.0
21/02:30am 17.8 20.2 17.0 95 0.5 CALM 0 0 0 0 1016.7 1016.7 0.0
21/02:00am 18.3 19.7 17.7 96 0.4 N 7 9 4 5 1016.6 1016.6 0.0
21/01:30am 18.3 19.6 17.5 95 0.5 WNW 7 9 4 5 1016.9 1016.9 0.0
21/01:00am 18.4 20.6 17.4 94 0.6 N 2 6 1 3 1017.2 1017.2 0.0
21/12:30am 18.7 20.2 17.7 94 0.6 N 6 7 3 4 1017.4 1017.4 0.0
21/12:00am 18.6 21.2 17.6 94 0.6 CALM 0 0 0 0 1017.6 1017.6 0.0
 
Date/Time
EST
Temp
°C
App
Temp
°C
Dew
Point
Rel
Hum
%
Delta-T
°C
Wind Press
QNH
hPa
Press
MSL
hPa
Rain
since 9 am
mm
Dir
 
Spd
km/h
Gust
km/h
Spd
kts
Gust
kts
20/11:30pm 18.2 19.5 17.0 93 0.7 N 6 9 3 5 1017.5 1017.5 0.0

Other Formats:

Comma delimited format used in spreadsheet applications
http://www.bom.gov.au/fwo/IDN60801/IDN60801.94596.axf

JavaScript Object Notation format (JSON) in row-major order
http://www.bom.gov.au/fwo/IDN60801/IDN60801.94596.json